EHI
0 0 0 0 0 0 0 0 0 0 0 0 0 0 0 0 0 0 0 0 0 0 0 0 0 0 0 1 0 0 1 1 1 0 0 0 0 0 0 0 0 0 0 0
0 0 0 0 0 0 0 0 0 0 0 0 0 0 0 0 0 0 0 0 0 0 0 0 0 0 1 1 1 1 1 1 0 0 0 0 0 0 0 0 0 0 0 0
0 0 0 0 0 0 0 0 0 0 0 0 0 0 0 0 0 0 0 0 0 0 0 0 0 0 1 2 2 2 2 2 1 0 0 0 0 0 0 0 0 0 0 0
0 0 0 0 0 0 0 0 0 0 0 0 0 0 0 0 0 0 0 0 0 0 0 0 0 0 0 1 2 2 3 3 2 1 0 0 0 0 0 0 0 0 0 0
0 0 0 0 0 0 0 0 0 0 0 0 0 0 0 0 0 0 0 0 0 0 0 0 0 0 0 0 1 1 1 2 2 1 0 0 0 0 0 0 0 0 0 0
0 0 0 0 0 0 0 0 0 0 0 0 0 0 0 0 0 0 0 0 0 0 0 0 0 0 0 0 0 0 0 1 1 1 0 0 0 0 0 0 0 0 0 0
0 0 0 0 0 0 0 0 0 0 0 0 0 0 0 0 0 0 0 0 0 0 0 0 0 0 0 0 0 0 0 0 0 0 0 0 0 0 0 0 0 0 0 0
0 0 0 0 0 0 0 0 0 0 0 0 0 0 0 0 0 0 0 0 0 0 0 0 0 0 0 0 0 0 0 0 0 0 0 0 1 1 1 1 0 0 0 0
0 0 0 0 0 0 0 0 0 0 0 0 0 0 0 0 0 0 0 0 0 0 0 0 0 0 0 0 0 0 0 0 0 0 0 0 1 1 2 1 0 0 0 0
0 0 0 0 0 0 0 0 0 0 0 0 0 0 0 0 0 0 0 0 0 0 0 0 0 0 0 0 0 0 0 0 0 0 0 0 0 1 1 1 0 0 0 0
0 0 0 0 0 0 0 0 0 0 0 0 0 0 0 0 0 0 0 0 0 0 0 0 0 0 0 0 0 0 0 0 0 0 0 0 0 0 0 0 0 0 0 0
0 0 0 0 0 0 0 0 0 0 0 0 0 0 0 0 0 0 0 0 0 0 0 0 0 0 0 0 0 0 0 0 0 0 0 0 0 0 0 0 0 0 0 0
0 0 0 0 0 0 0 0 0 0 0 0 0 0 0 0 0 0 0 0 0 0 0 0 0 0 0 0 0 0 0 0 0 0 0 0 0 0 0 0 0 0 0 0
0 0 0 0 0 0 0 0 0 0 0 0 0 0 0 0 0 0 0 0 0 0 0 0 0 0 0 0 0 0 0 0 0 0 0 0 0 0 0 0 0 0 0 0
0 0 0 0 0 0 0 0 0 0 0 0 0 0 0 0 0 0 0 0 0 0 0 0 0 0 0 0 0 0 0 0 0 0 0 0 0 0 0 0 0 0 0 0
0 0 0 0 0 0 0 0 0 0 0 0 0 0 0 0 0 0 0 0 0 0 0 0 0 0 0 0 0 0 0 0 0 0 0 0 0 0 0 0 0 0 0 0
0 0 0 0 0 0 0 0 0 0 0 0 0 0 0 0 0 0 0 0 0 0 0 0 0 0 0 0 0 0 0 0 0 0 0 0 0 0 0 0 0 0 0 0
0 0 0 0 0 0 0 0 0 0 0 0 0 0 0 0 0 0 0 0 0 0 0 0 0 0 0 0 0 0 0 0 0 0 0 0 0 0 0 0 0 0 0 0
0 0 0 0 0 0 0 0 0 0 0 0 0 0 0 0 0 0 0 0 0 0 0 0 0 0 0 0 0 0 0 0 0 0 0 0 0 0 0 0 0 0 0 0
0 0 0 0 0 0 0 0 0 0 0 0 0 0 0 0 0 0 0 0 0 0 0 0 0 0 0 0 0 0 0 0 0 0 0 0 0 0 0 0 0 0 0 0
0 0 0 0 0 0 0 0 0 0 0 0 0 0 0 0 0 0 0 0 0 0 0 0 0 0 0 0 0 0 0 0 0 0 0 0 0 0 0 0 0 0 0 0
0 0 0 0 0 0 0 0 0 0 0 0 0 0 0 0 0 0 0 0 0 0 0 0 0 0 0 0 0 0 0 0 0 0 0 0 0 0 0 0 0 0 0 0
0 0 0 0 0 0 0 0 0 0 0 0 0 0 0 0 0 0 0 0 0 0 0 0 0 0 0 0 0 0 0 0 0 0 0 0 0 0 0 0 0 0 0 0
0 0 0 0 0 0 0 0 0 0 0 0 0 0 0 0 0 0 0 0 0 0 0 0 0 0 0 0 0 0 0 0 0 0 0 0 0 0 0 0 0 0 0 0
0 0 0 0 0 0 0 0 0 0 0 0 0 0 0 0 0 0 0 0 0 0 0 0 0 0 0 0 0 0 0 0 0 0 0 0 0 0 0 0 0 0 0 0
0 0 0 0 0 0 0 0 0 0 0 0 0 0 0 0 0 0 0 0 0 0 0 0 0 0 0 0 0 0 0 0 0 0 0 0 0 0 0 0 0 0 0 0
0 0 0 0 0 0 0 0 0 0 0 0 0 0 0 0 0 0 0 0 0 0 0 0 0 0 0 0 0 0 0 0 0 0 0 0 0 0 0 0 0 0 0 0
Wind_Speed
8 6 6 8 9 9 12 13 13 12 11 11 9 7 6 5 3 2 2 2 2 2 2 2 2 2 3 3 3 3 3 3 3 3 3 3 3 3 3 3 3 3 3 2
8 7 7 10 11 11 12 13 13 13 12 7 7 5 5 4 3 3 3 3 3 2 2 2 2 2 2 2 2 3 4 3 2 3 3 3 3 3 3 3 3 3 3 3
7 5 8 10 8 9 9 8 9 11 9 6 6 5 5 4 3 3 2 2 2 2 2 2 2 2 2 2 2 3 3 2 2 3 3 3 2 3 3 3 3 3 3 3
6 6 9 2 3 2 6 6 7 8 7 7 6 5 5 4 3 3 3 3 3 2 2 2 2 2 2 1 1 2 2 3 2 3 3 2 2 3 3 3 3 3 3 3
5 7 8 4 1 3 6 6 4 6 6 5 4 4 2 2 3 4 3 3 2 2 2 2 2 2 2 1 2 2 2 3 3 3 3 3 3 3 3 3 3 3 3 4
6 7 7 2 2 2 5 6 1 3 4 3 3 5 3 4 3 4 3 2 2 1 2 2 2 2 2 2 2 2 3 3 3 3 3 3 4 3 2 3 3 3 3 4
9 8 6 3 2 2 5 3 3 3 3 3 4 5 5 4 4 3 2 2 1 1 1 1 2 2 3 3 3 2 2 3 3 3 3 3 3 2 2 3 3 3 3 3
6 8 5 3 2 3 4 5 4 4 4 5 5 5 5 4 4 3 2 2 1 1 1 1 2 2 3 3 2 2 2 2 3 3 3 3 2 2 2 2 3 3 3 3
5 4 3 1 3 4 5 6 6 6 6 6 6 6 6 5 4 3 2 2 2 1 1 1 2 3 3 2 2 2 2 2 3 3 3 3 3 2 2 2 2 2 3 3
6 7 6 6 6 6 7 8 8 7 7 7 7 7 6 5 4 3 3 2 2 2 2 2 2 2 2 2 2 3 3 3 3 3 3 3 2 2 2 2 2 3 3 3
9 8 7 6 7 7 7 7 7 7 7 7 7 7 6 5 4 4 3 2 2 2 2 2 2 2 2 2 3 4 4 3 3 3 3 3 2 2 3 2 3 3 3 3
7 7 7 7 6 6 7 8 8 8 7 7 7 7 6 5 4 3 3 2 3 2 2 2 2 2 2 2 3 4 3 3 2 2 2 3 3 2 1 2 3 3 4 5
9 8 9 9 8 7 8 8 8 8 8 7 6 6 6 4 4 3 3 3 3 3 2 2 2 2 2 2 3 4 4 3 2 3 3 3 3 3 2 2 2 3 4 4
8 8 9 9 9 8 8 8 8 7 7 6 6 5 5 4 3 4 4 3 3 2 2 2 2 2 2 2 3 3 3 2 3 3 3 3 3 3 3 3 3 3 2 3
8 8 9 9 8 7 6 6 6 6 6 5 5 4 4 4 4 3 3 2 2 2 2 2 2 2 2 2 3 3 3 2 2 3 3 3 3 3 3 4 4 4 3 2
7 7 7 8 8 7 7 7 7 7 6 6 5 5 5 4 3 2 2 2 3 3 2 2 2 2 2 2 2 2 2 2 3 3 3 3 3 3 4 4 4 4 4 4
7 7 6 7 7 7 7 7 7 7 6 6 5 4 3 3 3 2 2 2 3 3 3 3 2 2 2 2 2 2 2 2 3 4 3 3 4 4 4 4 4 4 4 3
7 8 8 8 7 7 7 7 6 6 6 5 4 3 3 4 3 3 2 2 2 2 2 2 2 2 2 3 2 2 2 3 3 3 3 3 4 4 4 4 5 5 4 3
5 6 7 7 6 6 6 6 6 5 4 3 3 3 3 3 3 2 2 2 3 3 2 2 2 3 3 2 3 3 3 3 3 3 3 4 4 4 4 4 5 5 4 4
4 4 5 5 5 5 5 5 4 4 3 2 2 2 2 2 2 2 2 2 2 2 2 2 3 3 2 2 3 3 3 3 3 3 3 4 4 4 4 5 5 5 5 4
4 4 4 4 4 4 4 4 3 3 2 2 2 2 2 1 1 1 2 1 1 2 2 2 3 2 2 2 3 3 3 3 3 4 4 4 4 5 5 5 5 5 5 5
3 3 3 3 3 3 3 2 2 2 1 1 1 1 1 1 1 1 1 1 1 2 2 2 2 2 3 3 3 3 3 3 3 3 4 4 4 5 5 5 5 5 5 5
3 3 3 3 3 3 2 2 1 1 1 1 1 1 1 1 1 1 1 1 1 2 2 2 2 3 4 3 2 2 3 3 3 4 4 4 4 5 5 5 5 5 5 5
3 3 3 2 2 2 2 1 1 1 1 1 1 1 1 1 1 1 1 1 2 2 2 2 2 3 4 3 2 2 3 3 3 3 4 4 4 4 5 5 5 5 5 6
3 3 2 2 2 1 1 1 1 0 1 1 1 1 1 1 1 1 1 1 1 2 2 2 2 3 3 3 3 3 3 3 4 4 4 4 4 4 5 5 5 5 5 5
3 2 2 2 2 1 1 1 1 1 1 1 1 1 1 1 1 1 1 1 2 3 3 2 2 3 3 3 3 3 3 3 3 4 4 4 5 5 4 5 6 5 5 5
3 2 2 1 1 1 1 1 1 1 1 1 1 1 1 1 1 1 1 1 2 2 2 2 2 3 3 3 3 3 3 3 3 4 4 4 4 4 4 5 5 5 5 5
Wind_Direction
269 277 267 265 261 244 242 255 268 277 280 291 301 302 299 298 289 269 249 240 233 229 229 231 237 240 231 222 220 221 227 239 254 267 264 262 257 253 251 249 253 256 260 268
257 257 259 264 264 257 252 257 261 271 279 298 306 306 300 294 280 266 259 264 259 247 240 241 243 249 242 228 222 230 237 245 257 268 268 264 265 263 257 249 249 254 259 268
264 261 266 259 260 248 243 247 258 268 285 309 304 303 300 296 285 275 268 272 270 262 252 255 255 256 249 249 227 233 251 264 267 270 273 272 271 263 255 254 253 258 263 265
269 262 255 317 47 275 250 259 265 276 296 301 299 304 299 297 292 283 278 270 264 266 265 265 256 249 251 242 239 243 257 272 278 277 276 276 271 266 265 263 258 257 264 265
254 262 270 272 274 256 254 268 282 280 295 308 312 285 278 333 307 293 286 282 276 280 279 273 254 236 232 221 248 268 284 285 280 272 273 275 268 269 272 274 267 262 260 263
246 260 266 329 32 308 260 259 340 297 300 304 292 281 331 355 323 312 311 302 300 293 282 275 272 244 235 244 258 277 287 289 292 282 274 275 277 275 276 269 271 275 273 272
246 255 266 351 38 221 246 338 20 316 302 283 289 319 340 330 316 312 314 315 309 278 277 293 287 254 245 252 266 286 294 300 304 303 290 284 282 277 276 273 270 267 266 272
239 245 257 83 160 241 314 349 323 305 292 280 291 313 315 307 302 299 298 298 290 281 302 317 300 263 254 261 275 280 284 295 307 313 313 302 289 283 281 274 268 271 273 278
243 264 344 219 256 308 321 304 305 298 292 283 282 289 293 290 290 288 289 289 291 290 306 318 307 285 268 271 272 268 272 284 295 305 312 307 295 283 276 269 270 278 282 283
253 262 274 275 275 286 290 292 297 294 291 281 279 282 281 280 276 273 275 273 274 281 298 315 318 302 288 284 273 271 276 284 290 293 300 304 302 293 280 274 279 284 285 285
259 274 282 270 271 279 285 287 288 286 283 278 277 278 277 272 262 256 258 262 266 275 294 307 312 309 305 287 277 277 277 280 286 292 296 296 294 302 293 294 304 295 292 291
268 284 281 288 296 291 284 282 284 286 284 278 275 274 272 266 254 249 251 253 265 274 280 292 298 302 311 300 283 281 279 284 287 287 286 285 287 284 314 289 314 307 301 299
278 291 290 292 295 290 287 289 291 287 283 281 277 272 267 261 250 245 246 246 255 264 267 275 285 296 311 304 284 276 279 286 286 282 282 282 280 280 283 274 253 269 277 286
274 280 280 281 287 291 291 293 290 283 279 279 278 269 260 256 249 244 243 247 251 252 257 268 273 288 309 303 285 280 285 290 287 282 281 282 280 279 279 281 284 284 268 272
267 266 272 285 289 290 292 290 286 280 280 277 271 261 252 251 249 248 248 249 241 240 253 266 271 287 306 297 288 287 289 292 288 286 281 279 278 280 279 278 282 290 293 281
282 275 270 273 277 284 286 283 281 283 282 275 267 262 258 255 252 244 232 220 226 240 253 258 263 272 277 277 280 281 284 288 286 280 277 278 278 278 279 280 282 286 290 300
269 273 273 273 278 282 284 284 284 284 280 273 270 268 255 236 229 230 229 231 243 256 259 261 267 273 268 272 281 285 284 271 266 272 272 275 278 281 283 282 283 286 288 302
266 273 275 276 281 284 285 286 285 283 279 277 269 245 230 225 229 232 233 234 248 259 267 273 280 277 263 264 274 279 275 275 271 275 277 277 283 282 281 280 279 280 284 279
276 276 278 279 279 279 282 285 283 282 280 269 242 233 231 228 227 230 224 227 244 260 276 287 290 270 264 269 286 272 272 273 275 277 279 279 277 279 279 279 278 279 281 282
291 291 289 289 285 281 281 284 285 280 273 254 235 225 222 222 215 215 224 241 263 294 298 293 272 272 276 267 273 271 269 270 273 276 280 281 281 282 281 281 279 278 279 279
303 304 302 300 299 295 290 286 280 272 264 236 223 223 227 224 211 224 236 257 303 326 307 280 273 278 284 292 268 270 266 267 271 276 280 282 283 284 284 284 283 281 281 282
304 302 301 304 307 308 310 302 286 271 252 237 233 218 208 217 230 251 262 297 317 315 295 274 278 297 305 298 275 276 275 275 277 280 281 284 285 285 286 287 285 283 281 280
303 298 295 297 299 305 313 311 292 263 236 237 231 217 214 227 248 261 277 312 307 307 296 285 305 306 299 283 280 280 281 281 282 284 285 285 285 286 287 288 286 285 284 282
294 294 294 294 287 281 291 314 313 291 272 268 252 238 230 242 273 295 314 334 323 305 293 304 303 302 297 287 285 282 281 284 286 286 287 286 286 288 288 289 288 287 287 287
284 283 278 276 277 287 295 295 284 271 280 299 299 277 271 278 285 297 301 293 310 300 295 299 300 297 289 288 284 282 284 286 290 291 286 289 292 294 294 293 291 290 289 288
271 271 272 272 283 284 263 252 260 266 273 285 304 306 313 309 278 277 289 282 288 298 297 293 286 285 288 289 287 290 291 288 283 283 289 292 293 295 293 294 294 293 293 293
266 267 266 269 269 258 254 253 253 255 257 264 291 299 299 291 284 287 291 286 286 288 294 295 292 291 295 295 293 292 292 292 292 292 294 294 295 296 298 296 295 293 293 292